TimeCST,TemperatureF,Dew PointF,Humidity,Sea Level PressureIn,VisibilityMPH,Wind Direction,Wind SpeedMPH,Gust SpeedMPH,PrecipitationIn,Events,Conditions,WindDirDegrees,DateUTC
12:58 AM,3.6,-2.9,74,30.55,10.0,South,11.5,-,N/A,,Clear,190,2013-11-22 06:58:00
1:58 AM,4.6,-2.2,73,30.51,10.0,SSW,11.5,-,N/A,,Clear,210,2013-11-22 07:58:00
2:58 AM,5.0,-2.0,73,30.52,10.0,SSW,5.8,-,N/A,,Clear,200,2013-11-22 08:58:00
3:58 AM,10.2,2.1,70,30.50,10.0,WSW,8.1,-,N/A,,Clear,240,2013-11-22 09:58:00
4:58 AM,13.3,4.6,68,30.49,10.0,West,8.1,-,N/A,,Clear,260,2013-11-22 10:58:00
5:58 AM,16.0,7.7,70,30.51,10.0,WNW,5.8,-,N/A,,Clear,300,2013-11-22 11:58:00
6:34 AM,17.6,8.6,68,30.42,10.0,NW,8.1,-,N/A,Snow,Light Snow,310,2013-11-22 12:34:00
6:44 AM,17.6,10.4,73,30.43,7.0,NW,9.2,-,N/A,Snow,Light Snow,310,2013-11-22 12:44:00
6:49 AM,17.6,10.4,73,30.43,5.0,NW,6.9,-,N/A,Snow,Light Snow,310,2013-11-22 12:49:00
6:58 AM,17.1,11.3,78,30.52,4.0,NW,6.9,-,0.00,Snow,Light Snow,310,2013-11-22 12:58:00
7:13 AM,17.6,12.2,79,30.44,6.0,NNW,6.9,-,N/A,Snow,Light Snow,330,2013-11-22 13:13:00
7:38 AM,17.6,14.0,86,30.45,5.0,NNW,8.1,-,N/A,Snow,Light Snow,330,2013-11-22 13:38:00
7:43 AM,17.6,14.0,86,30.45,4.0,NW,8.1,-,N/A,Snow,Light Snow,320,2013-11-22 13:43:00
7:56 AM,17.6,14.0,86,30.45,2.0,NW,9.2,-,N/A,Snow,Light Snow,320,2013-11-22 13:56:00
7:58 AM,17.1,14.0,88,30.54,3.0,NNW,8.1,-,0.00,Snow,Light Snow,330,2013-11-22 13:58:00
8:00 AM,17.6,14.0,86,30.46,2.0,NW,8.1,-,N/A,Snow,Light Snow,320,2013-11-22 14:00:00
8:08 AM,17.6,14.0,86,30.46,2.0,NW,8.1,-,N/A,Snow,Light Snow,320,2013-11-22 14:08:00
8:21 AM,17.6,14.0,86,30.47,3.0,NNW,10.4,-,N/A,Snow,Light Snow,330,2013-11-22 14:21:00
8:58 AM,17.6,13.6,84,30.57,10.0,NNW,6.9,-,0.00,Snow,Light Snow,330,2013-11-22 14:58:00
9:14 AM,17.6,12.2,79,30.48,10.0,NNW,8.1,-,N/A,,Overcast,330,2013-11-22 15:14:00
9:24 AM,17.6,12.2,79,30.48,10.0,NNW,10.4,-,N/A,,Overcast,340,2013-11-22 15:24:00
9:29 AM,17.6,12.2,79,30.49,10.0,North,10.4,-,N/A,,Overcast,350,2013-11-22 15:29:00
9:32 AM,17.6,12.2,79,30.49,10.0,North,9.2,-,N/A,,Overcast,350,2013-11-22 15:32:00
9:37 AM,17.6,12.2,79,30.49,10.0,North,13.8,-,N/A,,Overcast,360,2013-11-22 15:37:00
9:40 AM,17.6,10.4,73,30.49,9.0,North,15.0,-,N/A,Snow,Light Snow,360,2013-11-22 15:40:00
9:50 AM,17.6,10.4,73,30.50,10.0,North,13.8,-,N/A,Snow,Light Snow,360,2013-11-22 15:50:00
9:55 AM,17.6,10.4,73,30.50,6.0,North,16.1,-,N/A,Snow,Light Snow,350,2013-11-22 15:55:00
9:58 AM,17.6,10.4,73,30.60,5.0,North,15.0,-,0.00,Snow,Light Snow,360,2013-11-22 15:58:00
10:03 AM,17.6,10.4,73,30.51,3.0,North,17.3,-,N/A,Snow,Light Snow,350,2013-11-22 16:03:00
10:18 AM,15.8,8.6,73,30.52,9.0,North,13.8,20.7,N/A,Snow,Light Snow,350,2013-11-22 16:18:00
10:23 AM,15.8,8.6,73,30.52,6.0,North,15.0,-,N/A,Snow,Light Snow,10,2013-11-22 16:23:00
10:24 AM,15.8,8.6,73,30.53,5.0,North,15.0,-,N/A,Snow,Light Snow,360,2013-11-22 16:24:00
10:39 AM,14.0,8.6,79,30.54,8.0,North,12.7,-,N/A,Snow,Light Snow,10,2013-11-22 16:39:00
10:49 AM,14.0,8.6,79,30.54,10.0,NNE,17.3,23.0,N/A,,Overcast,20,2013-11-22 16:49:00
10:58 AM,14.4,7.2,73,30.64,10.0,North,18.4,24.2,0.00,,Overcast,10,2013-11-22 16:58:00
11:03 AM,14.0,6.8,73,30.55,10.0,North,20.7,24.2,N/A,,Overcast,10,2013-11-22 17:03:00
11:11 AM,14.0,5.0,67,30.55,10.0,North,18.4,-,N/A,,Overcast,10,2013-11-22 17:11:00
11:16 AM,14.0,5.0,67,30.55,10.0,North,16.1,25.3,N/A,,Overcast,10,2013-11-22 17:16:00
11:21 AM,14.0,5.0,67,30.56,10.0,North,16.1,25.3,N/A,,Overcast,10,2013-11-22 17:21:00
11:26 AM,14.0,3.2,62,30.56,10.0,North,18.4,-,N/A,,Overcast,360,2013-11-22 17:26:00
11:31 AM,14.0,3.2,62,30.56,10.0,North,17.3,-,N/A,,Overcast,360,2013-11-22 17:31:00
11:58 AM,13.6,4.8,68,30.66,10.0,North,13.8,-,0.00,,Mostly Cloudy,360,2013-11-22 17:58:00
12:18 PM,14.0,3.2,62,30.57,10.0,North,13.8,-,N/A,,Scattered Clouds,360,2013-11-22 18:18:00
12:58 PM,13.1,0.5,57,30.68,10.0,North,12.7,-,N/A,,Clear,350,2013-11-22 18:58:00
1:58 PM,12.7,1.4,61,30.69,10.0,North,18.4,-,N/A,,Clear,350,2013-11-22 19:58:00
2:58 PM,11.5,0.9,62,30.72,10.0,North,15.0,-,N/A,,Scattered Clouds,350,2013-11-22 20:58:00
3:03 PM,10.4,1.4,67,30.63,10.0,NNW,15.0,-,N/A,,Mostly Cloudy,340,2013-11-22 21:03:00
3:08 PM,10.4,1.4,67,30.63,10.0,NNW,16.1,-,N/A,,Scattered Clouds,340,2013-11-22 21:08:00
3:58 PM,9.3,0.1,66,30.74,10.0,NNW,15.0,-,N/A,,Clear,340,2013-11-22 21:58:00
4:48 PM,6.8,-0.4,72,30.67,10.0,NNW,9.2,-,N/A,,Scattered Clouds,330,2013-11-22 22:48:00
4:53 PM,6.8,-0.4,72,30.68,10.0,NNW,10.4,-,N/A,,Mostly Cloudy,340,2013-11-22 22:53:00
4:58 PM,6.1,-1.1,72,30.76,10.0,NNW,10.4,-,N/A,,Clear,330,2013-11-22 22:58:00
5:38 PM,5.0,-2.2,72,30.69,10.0,NNW,8.1,-,N/A,,Clear,340,2013-11-22 23:38:00
5:59 PM,3.2,-2.4,78,30.79,10.0,NNW,8.1,-,N/A,,Clear,340,2013-11-22 23:59:00
6:34 PM,1.4,-4.0,78,30.72,10.0,North,8.1,-,N/A,,Clear,360,2013-11-23 00:34:00
7:58 PM,1.0,-4.5,77,30.85,10.0,North,8.1,-,N/A,,Scattered Clouds,350,2013-11-23 01:58:00
8:58 PM,0.1,-5.4,77,30.87,10.0,NNW,5.8,-,N/A,,Scattered Clouds,330,2013-11-23 02:58:00
9:58 PM,-3.1,-8.3,78,30.89,10.0,NW,5.8,-,N/A,,Clear,320,2013-11-23 03:58:00
10:18 PM,-4.0,-9.4,78,30.81,10.0,NNW,6.9,-,N/A,,Mostly Cloudy,340,2013-11-23 04:18:00
10:23 PM,-2.2,-7.6,78,30.81,10.0,NNW,6.9,-,N/A,,Mostly Cloudy,340,2013-11-23 04:23:00
10:28 PM,-2.2,-7.6,78,30.81,10.0,NNW,5.8,-,N/A,,Mostly Cloudy,330,2013-11-23 04:28:00
10:38 PM,-2.2,-7.6,78,30.82,10.0,NNW,6.9,-,N/A,,Mostly Cloudy,330,2013-11-23 04:38:00
10:39 PM,-2.2,-7.6,78,30.82,10.0,NNW,6.9,-,N/A,Snow,Light Snow,330,2013-11-23 04:39:00
10:48 PM,-2.2,-7.6,78,30.82,10.0,NNW,6.9,-,N/A,,Mostly Cloudy,330,2013-11-23 04:48:00
10:53 PM,-2.2,-7.6,78,30.82,10.0,NNW,8.1,-,N/A,,Overcast,330,2013-11-23 04:53:00
10:58 PM,-2.4,-7.6,78,30.91,10.0,NNW,8.1,-,0.00,,Overcast,330,2013-11-23 04:58:00
11:28 PM,-2.2,-7.6,78,30.83,10.0,NNW,9.2,-,N/A,,Overcast,340,2013-11-23 05:28:00
11:58 PM,-0.8,-6.3,77,30.92,10.0,NNW,9.2,-,N/A,,Overcast,330,2013-11-23 05:58:00